Weather History for Northeast Philadelphia, PA

Change the Weather History Date:

Saturday, June 22, 2013

  Actual Average Record
Temperature  
Mean Temperature 70 °F -  
Max Temperature 84 °F 82 °F 93 °F (2012)
Min Temperature 57 °F 62 °F 54 °F (1999)
Cooling Degree Days 6    
Growing Degree Days 20 (Base 50)    
Moisture  
Dew Point 60 °F    
Average Humidity 65    
Maximum Humidity 90    
Minimum Humidity 47    
Precipitation  
Precipitation 0.00 in - - ()
Sea Level Pressure  
Sea Level Pressure 30.23 in    
Wind  
Wind Speed 2 mph (SSW)    
Max Wind Speed 9 mph    
Max Gust Speed -    
Visibility 10 miles    
Events      
Averages and records for this station are not official NWS values.
T = Trace of Precipitation, MM = Missing Value Source: NWS Daily Summary

Daily Weather History Graph

Daily Weather History Graph

Search for Another Location

Airport:

Trip Planner

Search our weather history database for the weather conditions in past years. The results will help you decide how hot, cold, wet, or windy it might be!

Date:

Astronomy

Jun. 22, 2013 Rise Set
Actual Time 5:31 AM EDT 8:32 PM EDT
Civil Twilight 4:58 AM EDT 9:05 PM EDT
Nautical Twilight 4:16 AM EDT 9:47 PM EDT
Astronomical Twilight 3:27 AM EDT 10:36 PM EDT
Moon 7:45 PM EDT (6/22) 4:41 AM EDT (6/22)
Length of Visible Light 16h 07m
Length of Day
15h 01m
Waxing Gibbous, 99% of the Moon is Illuminated
Jun 22
Waxing Gibbous
Jun 23
Full
Jun 30
Last Quarter
Jul 8
New
Jul 15
First Quarter

Hourly Weather History & Observations

Time (EDT) Temp. Heat Index Dew Point Humidity Pressure Visibility Wind Dir Wind Speed Gust Speed Precip Events Conditions
12:54 AM 64.9 °F - 53.1 °F 65% 30.28 in 10.0 mi Calm Calm - N/A   Clear
1:54 AM 63.0 °F - 54.0 °F 72% 30.28 in 10.0 mi Calm Calm - N/A   Clear
2:54 AM 62.1 °F - 55.0 °F 78% 30.26 in 10.0 mi Calm Calm - N/A   Clear
3:54 AM 60.1 °F - 55.0 °F 83% 30.27 in 10.0 mi Calm Calm - N/A   Unknown
4:54 AM 57.9 °F - 54.0 °F 87% 30.27 in 10.0 mi Calm Calm - N/A   Unknown
5:54 AM 57.9 °F - 55.0 °F 90% 30.28 in 10.0 mi Calm Calm - N/A   Unknown
6:54 AM 62.1 °F - 57.9 °F 86% 30.27 in 10.0 mi Calm Calm - N/A   Clear
7:54 AM 68.0 °F - 61.0 °F 78% 30.27 in 10.0 mi Calm Calm - N/A   Unknown
8:54 AM 71.1 °F - 61.0 °F 70% 30.28 in 10.0 mi WNW 3.5 mph - N/A   Clear
9:54 AM 75.0 °F - 62.1 °F 64% 30.27 in 10.0 mi Variable 3.5 mph - N/A   Clear
10:54 AM 77.0 °F - 62.1 °F 60% 30.26 in 10.0 mi South 4.6 mph - N/A   Clear
11:54 AM 78.1 °F - 62.1 °F 58% 30.26 in 10.0 mi Variable 5.8 mph - N/A   Partly Cloudy
12:54 PM 80.1 °F 81.5 °F 63.0 °F 56% 30.26 in 10.0 mi Variable 3.5 mph - N/A   Mostly Cloudy
1:54 PM 81.0 °F 82.2 °F 63.0 °F 54% 30.25 in 10.0 mi SSE 5.8 mph - N/A   Scattered Clouds
2:54 PM 82.9 °F 84.4 °F 64.0 °F 53% 30.22 in 10.0 mi SW 9.2 mph - N/A   Partly Cloudy
3:54 PM 84.0 °F 84.5 °F 62.1 °F 47% 30.19 in 10.0 mi SW 9.2 mph - N/A   Clear
4:54 PM 84.0 °F 84.9 °F 63.0 °F 49% 30.17 in 10.0 mi Variable 5.8 mph - N/A   Clear
5:54 PM 82.9 °F 84.0 °F 63.0 °F 51% 30.16 in 10.0 mi SW 4.6 mph - N/A   Clear
6:54 PM 82.0 °F 83.1 °F 63.0 °F 52% 30.14 in 10.0 mi Variable 5.8 mph - N/A   Clear
7:54 PM 81.0 °F 82.5 °F 64.0 °F 56% 30.14 in 10.0 mi SSW 5.8 mph - N/A   Clear
8:54 PM 79.0 °F - 64.9 °F 62% 30.15 in 10.0 mi SSW 5.8 mph - N/A   Clear
9:54 PM 75.9 °F - 64.0 °F 67% 30.19 in 10.0 mi SW 6.9 mph - N/A   Clear
10:54 PM 73.0 °F - 59.0 °F 61% 30.19 in 10.0 mi SW 9.2 mph - N/A   Clear
11:54 PM 72.0 °F - 60.1 °F 66% 30.19 in 10.0 mi SSW 5.8 mph - N/A   Clear